Weather in Valmiera

Latvia     57°31′57″N   25°25′17″E
temp.,
°C
wind,
m/s
gust,
m/s
humid.,
%
clouds,
%
prec.,
mm/h
press.,
hPa
HPBL,
m
13 august, sat
sat1300:00+15nw1173100 0.0 102411
03:00+14sw117747 0.0 102411
06:00+13w118025 0.0 102410
09:00+20wnw115954 0.0 1023263
12:00+26nw124265 0.0 10231062
15:00+29nnw12337 0.0 10211646
18:00+28nne22335 0.0 10201646
21:00+20nne226182 0.0 102021
14 august, sun
sun1400:00+17e117560 0.0 102111
03:00+15e228229 0.0 102018
06:00+15ese228549 0.0 102031
09:00+21e235710 0.0 1020290
12:00+27e23399 0.0 10191189
15:00+29e233359 0.0 10181916
18:00+29ese333669 0.0 10172049
21:00+21ese376594 0.0 1017125
15 august, mon
mon1500:00+19ese387569 0.0 1017158
03:00+17e2781100 0.0 1017140
06:00+17e278382 0.0 1016166
09:00+20ese3779100 0.8 1016241
12:00+25ese476397 0.0 1017582
15:00+30se5737100 0.0 10151796
18:00+29ese474588 0.0 10151729
21:00+22ese3674100 0.0 1015105
16 august, tue
tue1600:00+20ese2676100 0.0 1016117
03:00+20ese287690 0.0 1016167
06:00+19ese277982 0.0 1016141
09:00+24ese486162 0.0 1016370
12:00+29ese464249 0.0 10151055
15:00+32se463270 0.0 10142112
18:00+26se375391 0.0 1015237
21:00+23se3968100 0.1 1015276
17 august, wed
wed1700:00+21se31171100 0.0 1015369
03:00+20ese2577100 0.0 1016152
06:00+20ese2674100 0.0 1015204
09:00+23se4858100 0.0 1015418
12:00+28se464288 0.0 10151266
15:00+30se463664 0.0 10151714
18:00+29se353867 0.0 10141779
21:00+22ese3560100 0.0 101487